Regional Weather Roundup
Issued by NWS

Home | Current Version | Previous Version | Text Only | Print | Product List | Glossary On
Versions: 1 2 3 4 5 6 7 8 9 10 11 12 13 14 15 16 17 18 19 20 21 22 23 24 25 26 27 28 29 30 31 32 33 34 35 36 37 38 39 40 41 42 43 44 45 46 47 48 49 50
000
ASUS45 KREV 020110
RWRNV
NEVADA REGIONAL WEATHER ROUNDUP
NATIONAL WEATHER SERVICE RENO NV
600 PM PDT TUE SEP 01 2015

NOTE: "FAIR" INDICATES FEW OR NO CLOUDS BELOW 12,000 FEET WITH NO
SIGNIFICANT WEATHER AND/OR OBSTRUCTIONS TO VISIBILITY.

NVZ001-003-004-020200-
WESTERN NEVADA

CITY           SKY/WX    TMP DP  RH WIND       PRES   REMARKS
RENO           MOSUNNY   86  31  13 W21G30    29.90S
CARSON CITY    FAIR      82  32  16 W14G21    29.95R
MINDEN         FAIR      82  36  18 W17G26    29.94S
SLIDE MTN        N/A     61  32  33 W22         N/A
PYRAMID LAKE     N/A     86 N/A N/A N6          N/A
FALLON         PTSUNNY   92  24   8 N3        29.84F
LOVELOCK       SUNNY     89  26  10 W7        29.84F
HAWTHORNE      SUNNY     91  27   9 NW14      29.83F
$$

NVZ002-CAZ072-073-020200-
NORTHERN AND CENTRAL SIERRA

CITY           SKY/WX    TMP DP  RH WIND       PRES   REMARKS
S. LAKE TAHOE  SUNNY     75  35  23 S12G21    30.08S
TRUCKEE        MOSUNNY   75  32  20 W9        30.07S
SQUAW VLY 8000   N/A     61  32  33 W9          N/A
SUSANVILLE     SUNNY     82  32  16 S13       29.92R
BLUE CANYON    MOSUNNY   71  35  26 SW7       30.08S
MAMMOTH LAKES  FAIR      75  25  15 W9        30.13R
BRIDGEPORT     FAIR      75  27  17 SW17G25   30.08S
$$

NVZ030-031-036-020200-
NORTHERN NEVADA

CITY           SKY/WX    TMP DP  RH WIND       PRES   REMARKS
ELKO           SUNNY     88  24  10 VRB3      29.89F
WINNEMUCCA     SUNNY     87  26  11 SW13G21   29.86S
WENDOVER       SUNNY     90  34  13 NE8       29.84F
$$

NVZ035-037-020200-
CENTRAL NEVADA

CITY           SKY/WX    TMP DP  RH WIND       PRES   REMARKS
ELY            MOSUNNY   82  27  13 S14G28    30.05S
EUREKA           N/A     85  20   9 SW14      29.98S
$$

NVZ013-014-020200-
SOUTH CENTRAL NEVADA

CITY           SKY/WX    TMP DP  RH WIND       PRES   REMARKS
TONOPAH        SUNNY     84  18   8 S17       30.01R
$$

NVZ017-020-022-020200-
SOUTHERN NEVADA

CITY           SKY/WX    TMP DP  RH WIND       PRES   REMARKS
LAS VEGAS      PTSUNNY   96  51  21 SE10G18   29.78S
N. LAS VEGAS   PTSUNNY   97  48  18 SW15G22   29.80S
NELLIS AFB     PTSUNNY   97  53  22 S18       29.78S
HENDERSON      PTSUNNY   95  54  25 SE10      29.85S
MERCURY        SUNNY     91  40  16 SW17G24   29.89S
$$



USA.gov is the U.S. government's official web portal to all federal, state and local government web resources and services.